Fort Sill, OK

8:02 PM CST on January 19, 2018 (GMT -0600)
Post Army Air Field

Weather History for KFSI - August, 2013

Change the Weather History Date:

Sunday, August 18, 2013

  Actual Average Record
Temperature  
Mean Temperature 76 °F -  
Max Temperature 86 °F 96 °F 107 °F (1952)
Min Temperature 67 °F 71 °F 63 °F (1992)
Cooling Degree Days 12    
Growing Degree Days 26 (Base 50)    
Moisture  
Dew Point 63 °F    
Average Humidity 65    
Maximum Humidity 82    
Minimum Humidity 49    
Precipitation  
Precipitation 0.00 in - - ()
Sea Level Pressure  
Sea Level Pressure 30.05 in    
Wind  
Wind Speed 6 mph (ESE)    
Max Wind Speed 12 mph    
Max Gust Speed -    
Visibility 10 miles    
Events      
Averages and records for this station are not official NWS values.
T = Trace of Precipitation, MM = Missing Value Source: NWS Daily Summary

Daily Weather History Graph

Daily Weather History Graph

Search for Another Location

Airport or City:

Trip Planner

Search our weather history database for the weather conditions in past years. The results will help you decide how hot, cold, wet, or windy it might be!

Date:

Astronomy

Aug. 18, 2013 Rise Set
Actual Time 6:56 AM CDT 8:17 PM CDT
Civil Twilight 6:30 AM CDT 8:43 PM CDT
Nautical Twilight 5:58 AM CDT 9:15 PM CDT
Astronomical Twilight 5:25 AM CDT 9:48 PM CDT
Moon 6:22 PM CDT (8/18) 4:11 AM CDT (8/18)
Length of Visible Light 14h 13m
Length of Day
13h 20m
Waxing Gibbous, 92% of the Moon is Illuminated
Aug 18
Waxing Gibbous
Aug 20
Full
Aug 28
Last Quarter
Sep 5
New
Sep 12
First Quarter

Hourly Weather History & Observations

Time (CDT) Temp. Heat Index Dew Point Humidity Pressure Visibility Wind Dir Wind Speed Gust Speed Precip Events Conditions
12:58 AM 72.1 °F - 64.2 °F 76% 30.06 in 10.0 mi East 5.8 mph - N/A   Overcast
1:58 AM 70.5 °F - 63.5 °F 78% 30.05 in 10.0 mi East 5.8 mph - N/A   Scattered Clouds
2:58 AM 68.9 °F - 62.6 °F 80% 30.04 in 10.0 mi ESE 4.6 mph - N/A   Clear
3:58 AM 67.8 °F - 62.1 °F 82% 30.04 in 10.0 mi East 5.8 mph - N/A   Mostly Cloudy
4:58 AM 68.5 °F - 61.3 °F 78% 30.05 in 10.0 mi East 2.3 mph - N/A   Mostly Cloudy
5:58 AM 68.5 °F - 61.5 °F 78% 30.06 in 10.0 mi NE 3.5 mph - N/A   Overcast
6:58 AM 68.0 °F - 61.7 °F 80% 30.07 in 10.0 mi ENE 3.5 mph - N/A   Mostly Cloudy
7:58 AM 68.2 °F - 61.7 °F 80% 30.08 in 10.0 mi East 3.5 mph - N/A   Mostly Cloudy
8:58 AM 70.2 °F - 62.6 °F 77% 30.10 in 10.0 mi ENE 3.5 mph - N/A   Overcast
9:58 AM 75.0 °F - 62.4 °F 65% 30.11 in 10.0 mi SE 6.9 mph - N/A   Partly Cloudy
10:58 AM 77.9 °F - 63.1 °F 60% 30.10 in 10.0 mi SSE 9.2 mph - N/A   Clear
11:58 AM 81.0 °F 82.3 °F 63.5 °F 55% 30.10 in 10.0 mi SSE 11.5 mph - N/A   Clear
12:58 PM 82.2 °F 83.5 °F 63.5 °F 53% 30.08 in 10.0 mi SE 11.5 mph - N/A   Clear
1:58 PM 83.3 °F 84.6 °F 64.0 °F 52% 30.06 in 10.0 mi SE 10.4 mph - N/A   Partly Cloudy
2:58 PM 84.6 °F 85.9 °F 63.9 °F 50% 30.04 in 10.0 mi SE 6.9 mph - N/A   Clear
3:58 PM 85.8 °F 87.6 °F 64.9 °F 50% 30.03 in 10.0 mi SSE 10.4 mph - N/A   Clear
4:58 PM 86.0 °F 87.6 °F 64.6 °F 49% 30.01 in 10.0 mi SE 11.5 mph - N/A   Clear
5:58 PM 86.0 °F 87.9 °F 65.1 °F 50% 30.00 in 10.0 mi SSE 9.2 mph - N/A   Clear
6:58 PM 84.9 °F 86.1 °F 64.0 °F 49% 29.99 in 10.0 mi SSE 10.4 mph - N/A   Clear
7:58 PM 82.4 °F 83.7 °F 63.9 °F 53% 29.99 in 10.0 mi SE 6.9 mph - N/A   Clear
8:58 PM 78.8 °F - 63.9 °F 60% 29.99 in 10.0 mi ESE 8.1 mph - N/A   Clear
9:58 PM 76.1 °F - 63.9 °F 66% 30.01 in 10.0 mi ESE 6.9 mph - N/A   Clear
10:58 PM 74.8 °F - 63.3 °F 67% 30.04 in 10.0 mi SE 4.6 mph - N/A   Clear
11:58 PM 72.9 °F - 62.8 °F 71% 30.04 in 10.0 mi ESE 5.8 mph - N/A   Clear